Location: Trebic
(49.2170°N, 15.8830°E)
Time: 19:31:59
(UTC+02:00)

Courier 1B Rocket - Pass Details

Date: 26 August 2019
Orbit: 920 x 1202 km, 28.2° (Epoch: 16 October)

Event Time Altitude Azimuth Distance (km) Brightness Sun altitude
Rises 06:03:19 0° 240° (WSW) 3,964 - -0.8°
Exits shadow 06:03:21 - 240° (WSW) 3,958 7.5 -0.8°
Reaches altitude 10° 06:08:17 10° 212° (SSW) 3,060 7.2 -0.1°
Maximum altitude 06:10:55 12° 191° (S) 2,928 7.3 0.3°
Drops below altitude 10° 06:13:35 10° 170° (S) 3,103 7.6 0.8°
Sets 06:18:43 0° 143° (SE) 4,087 8.6 1.6°
